Content
SEND FEEDBACK

Daily
Averages
Monthly
Summary
United States of America

EL PASO, TEXAS


Home > North America > United States > Texas
Elevation: 3918 feet     Latitude: 31 48N     Longitude: 106 24W

WEATHER
 
SELECT A DAY
Number of Records: 175,935;   Date Range: 1/1/95 - 12/18/14
 
SHARE

PRINT THIS DATA

[ ← Previous Day ]
WEATHER ALMANAC - DECEMBER 15, 2013
[ Next Day → ]
[ °C ]   °F
Weather ElementAverageHighLow
Temperature41 °F55.9 °F (2:51 pm)27 °F (4:51 am)
Dewpoint21.4 °F25 °F (9:51 am)19 °F (5:51 am)
Humidity49.4 %75 % (4:51 am)25 % (1:51 pm)
Barometer30.28 in30.36 in (7:51 am)30.21 in (2:51 pm)
Wind Speed2.2 mph6.9 mph (6:51 am)
Weather ElementAverage
Visibility10 mi
Wind DirectionNNE (37.8 °)

Weather ElementTotal
Precipitation---
Heating Degree Days23.6 (Base 65)
Averaged from 23 records on December 15, 2013
WEATHER CONDITIONS BREAKOUT
WIND DIRECTION BREAKOUT
WEATHER BY HOUR - DECEMBER 15, 2013
[ °C ]   °F
Local TimeTemperatureDewpointHumidityBarometerVisibilityWind DirectionWind SpeedGust SpeedPrecipitationEventsConditions
1:51 AM32.0 °F23.0 °F69 %30.32 in10.0 miESE (110°)3.5 mphClear
2:51 AM33.1 °F23.0 °F66 %30.30 in10.0 miCalmClear
3:51 AM28.9 °F21.0 °F72 %30.30 in10.0 miNE (50°)4.6 mphClear
4:51 AM27.0 °F19.9 °F75 %30.30 in10.0 miENE (70°)4.6 mphPartly Cloudy
5:51 AM27.0 °F19.0 °F72 %30.32 in10.0 miCalmPartly Cloudy
6:51 AM27.0 °F19.0 °F72 %30.35 in10.0 miNorth (10°)6.9 mphPartly Cloudy
7:51 AM28.9 °F21.0 °F72 %30.36 in10.0 miCalmPartly Cloudy
8:51 AM36.0 °F23.0 °F59 %30.35 in10.0 miCalmPartly Cloudy
9:51 AM42.1 °F25.0 °F51 %30.35 in10.0 miCalmClear
10:51 AM46.0 °F24.1 °F42 %30.33 in10.0 miCalmClear
11:51 AM51.1 °F24.1 °F35 %30.29 in10.0 miSW (230°)6.9 mphClear
12:51 PM52.0 °F21.0 °F30 %30.24 in10.0 miVariable3.5 mphClear
1:51 PM55.0 °F19.9 °F25 %30.22 in10.0 miCalmClear
2:51 PM55.9 °F19.9 °F25 %30.21 in10.0 miNE (40°)4.6 mphClear
3:51 PM55.9 °F19.9 °F25 %30.21 in10.0 miCalmClear
4:51 PM54.0 °F19.9 °F26 %30.22 in10.0 miCalmClear
5:51 PM52.0 °F19.9 °F28 %30.23 in10.0 miCalmClear
6:51 PM48.0 °F21.9 °F36 %30.25 in10.0 miSW (220°)4.6 mphClear
7:51 PM46.0 °F21.9 °F39 %30.26 in10.0 miCalmClear
8:51 PM37.9 °F21.9 °F53 %30.27 in10.0 miNE (40°)4.6 mphClear
9:51 PM37.9 °F21.0 °F51 %30.27 in10.0 miCalmClear
10:51 PM36.0 °F21.0 °F55 %30.27 in10.0 miEast (100°)5.8 mphClear
11:51 PM34.0 °F21.0 °F59 %30.26 in10.0 miCalmClear
Hourly data recorded from KELP, located miles away from El Paso, Texas







STORIES FROM OUR PARTNERS